Overview Statistics Trail Chart Weather Telemetry Raw packets
 

This is the latest recevied weather packets stored in our database for station/object KI6SYE. If no packets are shown the sender has not sent any weather packets the latest 10 day(s).

<< 44 45 46 47 48 49 50 >>
Time Temp. Humidity Pressure Rain* Wind** Luminosity Snow
1788376297 22.78° C 74% 1016.3 hPa 0 mm - 723 W/m² -
1788375992 22.22° C 75% 1016.1 hPa 0 mm - 720 W/m² -
1788375687 22.78° C 74% 1016.2 hPa 0 mm - 716 W/m² -
1788375383 22.78° C 73% 1016.4 hPa 0 mm - 714 W/m² -
1788375079 22.22° C 74% 1016.2 hPa 0 mm - 706 W/m² -
1788374774 22.78° C 75% 1016.5 hPa 0 mm - 703 W/m² -
1788374469 22.78° C 73% 1016.3 hPa 0 mm - 698 W/m² -
1788374166 22.78° C 74% 1016.3 hPa 0 mm - 692 W/m² -
1788373862 22.78° C 74% 1016.4 hPa 0 mm - 685 W/m² -
1788373552 22.78° C 75% 1016.1 hPa 0 mm - 677 W/m² -
1788373249 22.22° C 75% 1016.3 hPa 0 mm - 672 W/m² -
1788372944 22.22° C 75% 1016.4 hPa 0 mm - 665 W/m² -
1788372638 22.22° C 75% 1016.3 hPa 0 mm - 657 W/m² -
1788372333 22.22° C 74% 1016.3 hPa 0 mm - 647 W/m² -
1788372029 22.22° C 74% 1016.4 hPa 0 mm - 640 W/m² -
1788371728 22.22° C 74% 1016.4 hPa 0 mm - 631 W/m² -
1788371424 22.22° C 75% 1016.2 hPa 0 mm - 622 W/m² -
1788371121 22.22° C 74% 1016.4 hPa 0 mm - 612 W/m² -
1788370816 22.22° C 73% 1016.4 hPa 0 mm - 600 W/m² -
1788370516 21.67° C 75% 1016.3 hPa 0 mm - 589 W/m² -
1788370216 22.22° C 74% 1016.3 hPa 0 mm - 576 W/m² -
1788369915 21.67° C 75% 1016.3 hPa 0 mm - 566 W/m² -
1788369611 21.67° C 75% 1016.2 hPa 0 mm - 555 W/m² -
1788369328 21.67° C 75% 1016.1 hPa 0 mm - 541 W/m² -
1788369002 21.67° C 76% 1016.3 hPa 0 mm - 527 W/m² -

* Rain latest hour (hover to see other rain measurements)
** Current wind speed in m/s (hover to see current wind gust speed)